Temperature
12 11 11 11 11 11 11 11 11 11 11 11 11 11 11 11 11 11 11 11 11 11 10 10 10 10 10 10 10 10 10 10 10 10 10 10 10 10 10 10 10 10 10
12 11 11 11 11 10 10 10 10 10 10 10 11 11 11 11 10 10 10 10 10 10 10 10 10 10 10 10 10 10 10 10 10 10 10 10 10 10 10 10 10 10 10
11 11 11 11 10 10 10 10 10 10 10 10 10 10 10 10 10 10 10 10 10 10 10 10 10 10 10 10 10 10 10 10 10 10 10 9 9 9 9 10 10 10 10
11 11 11 10 10 10 10 10 10 10 10 10 10 10 10 10 10 10 10 10 10 10 9 9 9 9 9 9 9 9 9 9 9 9 9 9 9 9 9 9 10 10 10
11 11 10 10 10 10 9 9 9 9 9 9 9 9 9 9 9 9 9 9 9 9 9 9 9 9 9 9 9 9 9 9 9 9 9 9 9 9 9 9 9 9 9
11 10 10 10 9 9 9 9 9 9 9 9 9 9 9 9 9 9 9 9 9 9 9 9 9 9 9 9 9 9 9 9 9 9 9 9 9 9 9 9 9 9 9
10 10 10 9 9 9 9 9 9 8 9 9 9 8 8 8 8 8 8 9 9 9 9 8 8 8 8 8 8 8 8 8 8 8 8 8 8 8 8 8 8 9 9
10 10 10 9 9 9 8 8 8 8 8 8 8 8 8 8 8 8 8 8 8 8 8 8 8 8 8 8 8 8 8 8 8 8 8 8 8 8 8 8 8 8 8
10 10 9 9 9 8 8 8 8 8 8 8 8 8 8 7 7 8 8 8 8 8 8 7 7 7 7 7 8 8 8 8 8 8 8 8 8 8 8 8 8 8 8
10 10 9 9 8 8 8 7 7 7 7 7 7 8 7 7 7 7 7 7 7 7 7 7 7 7 7 7 7 7 7 7 7 7 7 7 7 7 8 7 7 7 7
9 9 9 8 8 8 7 7 7 7 7 7 7 7 7 7 7 7 7 7 7 7 7 7 7 7 7 7 7 7 7 7 7 7 7 7 7 7 7 7 7 7 7
9 9 8 8 8 7 7 7 7 6 6 7 7 7 7 7 7 7 6 6 6 6 6 6 6 6 6 6 6 6 6 6 6 6 6 6 6 7 6 6 6 6 6
8 8 8 8 7 7 7 7 6 6 6 6 6 6 6 6 6 6 6 6 6 6 6 6 6 6 6 6 6 6 6 6 6 6 6 6 6 6 6 6 6 6 6
8 8 7 7 7 7 6 6 6 6 6 5 5 5 5 6 6 6 6 6 6 5 5 5 5 5 5 5 5 5 6 6 5 5 5 6 6 6 6 6 6 6 6
7 7 7 7 6 6 6 6 6 5 5 5 5 5 5 5 5 5 5 5 5 5 5 5 5 5 5 5 5 5 5 5 5 5 5 5 5 5 5 5 5 5 5
7 7 6 6 6 6 5 5 5 5 5 5 5 5 4 4 4 4 4 5 5 4 4 4 4 5 5 5 5 5 5 4 4 4 4 4 5 5 5 5 5 5 5
6 6 6 6 5 5 5 5 5 5 4 4 4 4 4 4 4 4 4 4 4 4 4 4 4 4 4 4 4 4 4 4 4 4 4 4 4 4 4 4 4 4 4
6 6 5 5 5 5 5 5 4 4 4 4 4 4 3 3 3 3 3 3 3 3 3 3 3 3 3 3 3 3 3 3 3 3 3 3 4 4 4 4 4 4 4
6 5 5 5 5 5 4 4 4 4 4 4 3 3 3 3 3 3 3 3 3 3 3 3 3 3 3 3 3 3 3 3 3 3 3 3 3 3 3 3 3 3 3
5 5 5 5 4 4 4 4 4 4 3 3 3 3 3 2 2 2 2 2 2 2 2 3 3 2 2 3 3 3 3 3 3 3 3 3 3 3 3 3 3 3 3
5 5 5 4 4 4 4 4 3 3 3 3 3 2 2 2 2 2 2 2 2 2 2 2 2 2 2 2 2 2 2 2 2 2 2 2 2 2 2 2 3 3 3
5 4 4 4 4 4 4 3 3 3 3 3 2 2 2 2 2 2 2 2 2 2 2 2 2 2 2 2 2 2 2 2 2 2 2 2 2 2 2 2 2 2 2
4 4 4 4 3 3 3 3 3 2 2 2 2 2 2 2 1 1 1 1 1 1 1 2 2 2 2 2 2 2 2 2 2 1 2 2 2 2 2 2 2 2 2
4 4 3 3 3 3 3 2 2 2 2 2 2 2 1 1 1 1 1 1 1 1 1 1 1 1 1 2 2 2 2 2 1 1 1 1 1 1 1 1 1 1 2
4 3 3 3 3 2 2 2 2 2 2 1 1 1 1 1 1 1 1 1 1 1 1 1 1 1 1 1 1 1 1 1 1 1 1 1 1 1 1 1 1 1 1
3 3 3 3 2 2 2 2 2 1 1 1 1 1 1 1 1 1 1 1 0 0 0 0 1 1 1 1 1 1 1 1 1 1 1 1 1 1 1 1 1 1 1
Wind_Speed
1 1 1 1 1 1 1 1 1 1 1 1 1 1 1 1 0 1 1 1 1 1 1 1 1 1 1 1 1 1 2 2 2 2 1 1 1 2 2 2 2 2 1
2 1 0 0 1 1 1 1 1 1 1 1 1 1 1 1 1 1 1 1 2 2 2 1 1 1 1 1 1 2 2 2 3 2 1 1 1 1 1 1 1 1 0
2 1 1 0 0 1 1 1 1 1 1 1 1 1 2 2 2 2 2 2 3 3 3 3 3 2 2 2 2 2 2 1 2 2 1 1 1 1 1 1 1 1 1
2 2 1 1 1 2 1 1 1 1 1 1 1 2 2 2 2 2 2 2 3 3 3 3 3 4 4 3 3 3 2 1 1 1 1 1 1 1 0 1 1 1 1
3 3 2 2 1 1 1 1 1 1 2 1 1 1 2 2 2 1 2 2 2 2 2 2 3 3 3 3 2 3 3 2 2 2 2 1 1 1 2 1 1 1 1
4 4 3 2 1 1 1 1 1 1 2 1 1 1 2 2 3 2 1 1 2 2 2 2 2 2 3 3 4 4 4 4 4 3 2 3 3 3 2 2 1 0 1
4 4 3 3 2 2 1 0 1 1 1 1 1 1 2 3 3 2 1 0 1 2 2 2 2 2 1 2 2 3 3 4 5 4 4 5 4 4 4 3 3 2 3
4 4 3 3 2 2 1 1 1 1 1 1 1 2 2 3 4 3 2 1 0 1 2 3 3 2 2 2 1 1 2 2 3 3 4 5 5 5 5 4 4 1 1
4 4 4 4 3 3 2 2 2 1 1 1 1 1 2 4 4 3 2 1 1 2 2 2 3 3 3 2 2 2 1 2 2 2 3 3 3 4 4 3 2 1 1
5 4 4 4 4 4 4 3 2 1 2 1 1 1 2 3 4 3 1 0 1 2 2 1 2 3 3 3 3 3 3 3 2 2 2 2 2 3 5 5 4 3 2
4 3 3 4 4 3 2 2 1 1 1 1 1 2 2 3 4 3 1 1 1 1 1 2 2 3 3 3 3 3 4 3 2 2 1 1 1 1 2 3 4 4 3
3 2 2 3 3 2 2 1 1 1 1 1 1 2 3 3 3 3 3 2 1 1 2 2 2 2 2 2 2 2 2 1 1 1 1 1 1 2 2 3 3 3 4
3 2 2 1 1 2 3 3 2 2 2 1 1 2 3 3 3 4 3 3 2 1 2 3 3 2 1 1 2 2 1 1 1 1 2 2 2 3 1 1 1 1 1
3 2 2 2 1 2 2 2 3 3 2 2 2 2 2 2 2 2 2 2 1 1 1 2 2 2 1 1 1 1 0 1 2 2 2 2 1 1 1 1 1 1 1
2 2 2 2 2 2 2 2 3 3 4 3 3 3 3 3 3 3 1 1 1 1 0 1 2 2 2 1 1 1 1 0 0 0 1 1 1 1 1 1 0 0 1
2 2 2 2 2 2 2 1 2 2 3 3 3 3 3 4 3 2 1 1 1 1 2 1 1 1 1 1 1 1 1 1 1 1 1 1 1 1 1 1 0 0 1
4 3 2 2 2 3 3 2 2 2 2 2 2 2 1 1 1 1 0 1 2 2 1 0 0 1 1 2 1 1 1 1 1 1 1 1 1 1 1 1 1 1 2
3 4 3 3 3 3 3 3 3 3 2 2 2 1 1 1 1 1 1 2 1 1 0 1 1 2 2 1 1 1 1 1 1 1 1 2 1 1 1 2 1 2 2
3 3 3 3 3 3 3 3 3 3 3 2 1 1 1 1 1 1 2 1 1 1 1 1 2 2 2 2 2 2 1 1 1 2 2 2 2 2 2 2 2 3 2
3 4 3 2 2 2 2 3 3 3 3 3 3 2 1 1 1 1 1 1 2 2 2 2 2 2 2 2 2 2 1 2 2 2 2 2 2 2 2 3 3 2 3
2 3 4 2 2 3 3 3 3 3 4 3 3 3 4 3 3 3 2 2 2 2 2 2 2 2 2 2 2 2 2 2 2 2 2 2 2 2 2 2 2 3 3
3 3 2 3 2 3 3 3 3 3 3 3 3 3 4 3 2 2 3 3 2 3 2 2 2 3 3 3 3 3 3 3 2 2 2 2 2 2 2 2 2 3 3
3 3 3 2 2 3 2 2 2 3 3 2 2 2 2 3 3 3 3 3 2 2 2 2 2 2 2 2 3 3 3 4 3 3 3 3 3 3 2 2 3 3 3
4 4 3 3 2 2 3 3 3 3 3 2 2 2 3 3 3 3 3 3 2 2 2 2 3 3 3 3 3 3 4 4 4 3 4 3 3 3 3 3 3 4 4
3 3 3 3 3 3 3 3 3 3 3 3 2 2 2 2 3 3 3 3 3 2 2 3 3 4 4 4 4 4 5 5 4 3 3 2 3 3 3 3 3 3 3
3 3 3 3 3 3 3 4 4 3 3 3 3 3 3 3 3 3 2 2 3 3 3 3 4 5 5 5 5 5 5 5 4 4 3 2 3 3 3 3 3 3 3
Wind_Direction
125 114 76 339 330 47 40 316 310 333 354 341 308 292 275 262 218 152 199 187 171 221 221 184 227 214 204 208 186 174 178 168 202 273 301 324 345 343 352 9 13 13 27
166 141 147 329 13 36 332 315 340 335 320 305 309 283 260 260 230 202 217 217 205 217 226 200 231 220 215 212 191 198 200 193 190 232 287 313 304 297 323 339 2 3 326
158 145 115 24 329 300 306 314 327 316 316 329 332 292 273 257 243 233 220 223 221 225 221 208 221 199 223 227 208 209 214 208 194 199 253 287 310 313 341 320 354 360 318
163 161 188 253 255 259 273 302 315 310 305 299 294 286 281 266 245 244 231 227 230 231 230 223 218 208 215 218 218 216 202 185 173 186 232 270 284 273 207 248 317 337 317
171 184 217 244 258 269 287 296 331 337 319 302 292 311 310 275 247 227 234 225 213 217 238 238 229 224 229 223 223 205 187 185 184 194 215 230 239 232 233 224 242 302 308
182 201 210 206 228 254 270 303 9 353 339 344 333 310 308 308 315 306 261 209 194 195 223 248 247 240 259 259 247 223 197 190 198 201 215 223 232 225 213 199 195 186 272
195 200 202 197 206 233 246 334 318 309 335 338 328 324 306 305 323 335 352 98 195 204 211 230 248 255 256 255 259 253 240 227 203 196 208 224 221 216 196 201 207 215 230
202 203 199 193 205 220 202 226 266 275 265 285 304 305 304 312 330 333 337 33 241 242 231 222 226 238 228 207 209 255 263 256 237 222 220 227 225 202 195 204 207 209 300
209 217 209 198 200 205 214 229 243 247 262 269 289 303 302 307 326 338 9 351 313 293 275 245 229 230 233 193 170 203 263 285 280 253 253 243 228 199 171 148 147 153 249
220 222 211 197 197 208 218 219 231 232 245 252 292 294 288 294 314 332 356 242 298 301 309 290 261 253 236 192 185 194 228 256 265 281 303 301 253 206 188 186 186 191 212
217 210 206 195 197 201 210 217 212 223 228 250 276 294 290 292 303 310 302 209 225 259 281 288 283 289 262 223 204 211 229 231 235 227 244 275 281 223 210 215 206 198 203
179 179 202 197 194 186 172 187 207 208 214 242 272 299 300 297 298 293 288 285 265 216 259 274 279 294 281 261 238 250 237 200 202 197 208 246 261 256 248 242 232 230 231
156 170 198 205 191 175 174 182 195 207 214 235 241 266 290 303 302 303 290 285 281 252 262 286 303 313 302 278 285 262 197 187 185 201 229 248 250 247 244 241 246 269 291
168 190 203 195 192 182 180 183 192 205 212 227 235 244 264 284 296 299 290 284 280 312 318 323 345 359 4 356 348 305 260 211 199 214 236 257 267 263 259 251 242 258 285
179 194 200 200 199 197 201 205 205 214 210 215 227 226 228 252 267 266 243 220 211 220 66 41 31 20 11 351 349 336 300 278 215 236 228 249 262 261 289 293 241 299 258
189 206 207 202 209 203 199 235 248 238 256 250 252 248 250 253 262 268 291 347 33 130 101 94 38 343 311 288 284 293 280 252 244 232 232 245 256 255 286 331 352 234 262
199 206 205 202 205 208 202 196 223 284 294 284 287 271 253 255 251 267 294 73 72 102 85 138 260 289 289 282 277 272 263 260 249 231 235 249 256 260 278 289 287 290 282
203 209 207 208 211 207 204 202 200 203 230 275 297 283 240 210 177 86 92 88 69 79 163 222 249 267 278 272 262 275 287 296 282 259 247 247 245 247 261 264 267 279 279
208 212 215 208 208 208 201 196 200 202 208 227 279 295 271 229 182 115 118 140 185 221 235 245 252 261 266 268 260 250 251 255 261 260 256 249 249 250 260 265 263 273 279
218 224 215 194 187 189 196 198 204 207 213 219 225 241 242 189 187 212 204 209 212 226 235 247 253 257 255 255 259 255 255 261 263 254 257 255 254 256 257 256 258 267 272
219 223 216 201 192 200 203 205 210 211 216 224 229 227 205 204 210 214 219 229 225 230 237 244 248 247 249 251 252 249 251 258 257 258 262 267 263 263 266 266 273 271 274
204 202 199 200 200 204 207 205 207 216 221 223 236 236 212 203 208 217 228 237 239 234 235 237 243 238 236 236 237 236 239 251 257 255 256 259 261 269 267 264 271 282 279
194 194 196 201 201 202 198 199 207 214 220 222 228 228 223 219 213 221 234 241 243 250 254 251 255 263 258 248 239 230 231 239 245 247 242 246 253 254 254 263 270 276 280
191 194 194 196 199 196 199 210 217 219 215 217 223 227 226 224 223 229 235 237 235 244 256 260 264 263 256 262 262 257 253 252 249 239 233 234 242 252 250 255 262 268 269
193 196 196 197 200 204 208 214 219 218 219 225 227 230 236 234 235 236 236 235 243 251 262 263 268 265 256 258 263 265 266 259 253 246 231 229 241 246 252 253 258 273 280
197 201 204 204 203 204 208 215 220 222 224 228 226 229 231 232 240 243 236 234 242 254 264 266 269 270 264 260 261 264 266 261 256 248 235 217 237 248 253 253 258 260 267
Height
1523 1522 1522 1521 1521 1520 1520 1519 1519 1519 1519 1519 1519 1519 1519 1519 1519 1519 1519 1519 1520 1520 1520 1520 1521 1521 1522 1522 1522 1522 1522 1523 1522 1522 1522 1522 1522 1522 1521 1522 1521 1521 1521
1521 1521 1521 1520 1519 1519 1518 1518 1518 1517 1517 1517 1517 1517 1517 1517 1517 1517 1517 1517 1517 1517 1517 1518 1518 1519 1519 1520 1520 1520 1520 1520 1520 1520 1520 1520 1520 1520 1520 1520 1520 1520 1520
1520 1520 1519 1518 1518 1517 1517 1516 1516 1515 1515 1515 1515 1514 1514 1514 1514 1514 1514 1514 1514 1514 1515 1515 1515 1516 1516 1517 1517 1517 1518 1518 1518 1518 1518 1518 1518 1518 1518 1518 1518 1518 1518
1518 1517 1517 1516 1516 1515 1515 1514 1514 1513 1513 1513 1512 1512 1512 1512 1512 1512 1511 1511 1511 1511 1512 1512 1513 1513 1513 1514 1514 1514 1515 1515 1515 1515 1515 1515 1516 1516 1516 1516 1516 1516 1516
1515 1515 1514 1514 1513 1513 1513 1512 1512 1511 1511 1510 1510 1509 1509 1509 1509 1508 1508 1507 1507 1508 1508 1509 1509 1510 1510 1511 1511 1511 1512 1512 1512 1512 1512 1512 1513 1513 1513 1513 1513 1513 1514
1511 1511 1512 1511 1511 1511 1510 1510 1509 1509 1508 1508 1507 1507 1506 1506 1506 1505 1505 1504 1504 1504 1505 1505 1506 1506 1507 1507 1508 1508 1509 1509 1509 1509 1509 1509 1509 1510 1511 1511 1511 1510 1510
1508 1508 1508 1508 1508 1508 1508 1507 1506 1506 1506 1505 1505 1504 1503 1503 1503 1502 1502 1501 1501 1501 1501 1502 1502 1503 1503 1504 1504 1504 1505 1505 1506 1506 1505 1506 1506 1507 1507 1507 1508 1508 1508
1504 1504 1504 1504 1504 1504 1504 1504 1504 1503 1503 1502 1502 1501 1501 1500 1500 1499 1499 1498 1498 1498 1498 1499 1499 1500 1500 1500 1501 1501 1501 1501 1501 1502 1502 1502 1503 1503 1504 1504 1504 1505 1505
1500 1501 1501 1501 1501 1501 1501 1501 1500 1500 1500 1499 1499 1498 1498 1497 1497 1497 1496 1495 1495 1495 1495 1495 1496 1496 1497 1497 1497 1497 1497 1497 1498 1498 1498 1498 1499 1500 1500 1501 1501 1501 1501
1497 1497 1498 1497 1497 1497 1497 1497 1497 1497 1496 1496 1495 1495 1495 1494 1494 1493 1493 1492 1492 1492 1492 1492 1493 1493 1494 1494 1494 1494 1493 1494 1494 1494 1495 1495 1495 1496 1496 1496 1497 1497 1497
1493 1494 1494 1494 1494 1494 1494 1494 1494 1493 1493 1493 1492 1492 1491 1491 1491 1490 1490 1489 1489 1489 1489 1489 1489 1489 1490 1490 1490 1490 1490 1491 1490 1491 1491 1491 1491 1492 1492 1493 1493 1494 1494
1489 1490 1490 1490 1490 1490 1490 1490 1490 1490 1490 1489 1489 1488 1488 1488 1487 1487 1487 1486 1486 1486 1485 1486 1486 1486 1486 1486 1486 1486 1487 1487 1487 1487 1487 1487 1487 1488 1488 1489 1490 1490 1491
1486 1486 1486 1487 1486 1486 1486 1486 1486 1486 1486 1486 1485 1485 1485 1485 1484 1484 1484 1483 1483 1483 1483 1483 1482 1482 1482 1482 1483 1483 1483 1483 1483 1483 1483 1483 1484 1485 1485 1485 1486 1486 1487
1482 1482 1482 1482 1483 1483 1483 1483 1483 1482 1482 1482 1482 1481 1481 1481 1481 1480 1480 1480 1480 1480 1479 1479 1479 1479 1479 1479 1479 1479 1479 1479 1480 1480 1480 1480 1481 1481 1481 1481 1482 1482 1483
1478 1479 1479 1479 1479 1479 1479 1479 1479 1479 1479 1479 1479 1478 1478 1477 1477 1477 1477 1476 1476 1476 1476 1476 1475 1475 1475 1475 1475 1475 1475 1476 1476 1476 1477 1477 1477 1477 1477 1478 1478 1478 1479
1475 1475 1475 1475 1475 1475 1475 1475 1476 1476 1476 1476 1475 1475 1474 1474 1474 1474 1473 1473 1473 1473 1473 1472 1472 1472 1472 1471 1471 1471 1472 1472 1473 1473 1474 1474 1474 1474 1474 1475 1475 1475 1475
1471 1471 1471 1471 1471 1472 1472 1472 1472 1472 1472 1472 1472 1471 1471 1470 1470 1470 1470 1470 1470 1470 1469 1469 1469 1469 1469 1469 1468 1469 1469 1470 1470 1470 1471 1471 1471 1471 1471 1472 1472 1472 1472
1467 1467 1467 1467 1468 1468 1468 1468 1468 1468 1467 1467 1468 1468 1467 1467 1467 1467 1467 1467 1466 1466 1466 1466 1466 1466 1466 1466 1466 1466 1467 1467 1467 1467 1467 1468 1468 1468 1468 1468 1469 1469 1469
1464 1463 1464 1464 1464 1464 1464 1464 1464 1464 1464 1464 1464 1464 1464 1464 1464 1464 1463 1463 1462 1463 1463 1463 1463 1463 1463 1463 1463 1464 1464 1464 1464 1464 1464 1464 1464 1465 1465 1465 1466 1466 1466
1460 1460 1460 1460 1460 1460 1460 1461 1460 1460 1460 1460 1460 1460 1460 1460 1460 1460 1460 1459 1459 1459 1460 1460 1460 1460 1460 1460 1460 1460 1461 1461 1461 1461 1461 1461 1462 1462 1462 1462 1462 1462 1462
1457 1456 1457 1456 1456 1456 1456 1457 1457 1457 1456 1456 1456 1457 1457 1457 1456 1456 1456 1456 1457 1457 1457 1457 1457 1457 1457 1457 1457 1457 1457 1457 1458 1458 1458 1458 1458 1459 1459 1459 1459 1459 1459
1453 1453 1453 1453 1453 1453 1453 1453 1453 1453 1453 1453 1453 1453 1453 1453 1453 1453 1453 1453 1454 1454 1454 1454 1454 1454 1454 1454 1454 1454 1454 1454 1454 1455 1455 1455 1455 1455 1456 1456 1456 1456 1456
1449 1449 1449 1449 1449 1449 1450 1450 1450 1450 1450 1450 1450 1450 1450 1450 1450 1450 1450 1450 1450 1450 1450 1450 1450 1450 1450 1450 1450 1450 1450 1450 1451 1451 1451 1451 1451 1452 1452 1452 1452 1452 1452
1445 1445 1445 1445 1445 1446 1446 1446 1446 1446 1446 1446 1446 1446 1446 1446 1446 1447 1447 1447 1447 1447 1447 1447 1446 1446 1447 1447 1447 1447 1447 1447 1447 1448 1448 1448 1448 1448 1448 1448 1449 1449 1449
1441 1441 1441 1441 1442 1442 1442 1443 1443 1443 1443 1443 1443 1443 1443 1443 1443 1443 1444 1444 1444 1444 1444 1443 1443 1443 1443 1443 1443 1443 1443 1443 1444 1444 1444 1444 1444 1444 1444 1445 1445 1445 1445
1437 1437 1438 1438 1438 1438 1439 1439 1439 1439 1439 1439 1439 1439 1440 1440 1440 1440 1440 1440 1440 1440 1440 1440 1439 1439 1439 1439 1439 1439 1439 1439 1439 1440 1440 1440 1440 1440 1440 1441 1441 1441 1441